TimeEST,TemperatureF,Dew PointF,Humidity,Sea Level PressureIn,VisibilityMPH,Wind Direction,Wind SpeedMPH,Gust SpeedMPH,PrecipitationIn,Events,Conditions,WindDirDegrees,DateUTC
12:11 AM,33.8,30.2,87,29.80,8.0,Calm,Calm,-,0.00,Rain,Light Freezing Rain,0,2014-01-06 05:11:00
12:36 AM,33.8,30.2,87,29.77,4.0,Calm,Calm,-,0.00,,Overcast,0,2014-01-06 05:36:00
12:49 AM,33.8,30.2,87,29.76,3.0,Calm,Calm,-,0.01,,Overcast,0,2014-01-06 05:49:00
12:54 AM,33.1,30.9,92,29.79,3.0,Calm,Calm,-,0.01,,Overcast,0,2014-01-06 05:54:00
1:10 AM,33.8,30.2,87,29.74,5.0,Calm,Calm,-,N/A,,Overcast,0,2014-01-06 06:10:00
1:54 AM,34.0,32.0,92,29.74,6.0,Calm,Calm,-,0.01,Rain,Light Rain,0,2014-01-06 06:54:00
2:30 AM,33.8,32.0,93,29.69,6.0,Calm,Calm,-,0.02,Rain,Rain,0,2014-01-06 07:30:00
2:54 AM,35.1,32.0,89,29.68,10.0,Calm,Calm,-,0.04,,Overcast,0,2014-01-06 07:54:00
3:54 AM,36.0,33.1,89,29.60,9.0,Variable,3.5,-,0.02,Rain,Light Rain,0,2014-01-06 08:54:00
4:37 AM,35.6,33.8,93,29.53,7.0,Calm,Calm,-,0.02,Rain,Light Rain,0,2014-01-06 09:37:00
4:54 AM,36.0,34.0,93,29.54,8.0,Calm,Calm,-,0.03,Rain,Light Rain,0,2014-01-06 09:54:00
5:54 AM,37.0,34.0,89,29.46,10.0,Variable,3.5,-,0.01,,Overcast,0,2014-01-06 10:54:00
6:54 AM,43.0,39.0,86,29.41,10.0,South,19.6,31.1,N/A,,Overcast,190,2014-01-06 11:54:00
7:54 AM,41.0,37.9,89,29.37,2.5,SW,4.6,-,0.05,Rain,Rain,220,2014-01-06 12:54:00
8:02 AM,41.0,39.2,93,29.34,5.0,Variable,3.5,-,0.01,Rain,Light Rain,0,2014-01-06 13:02:00
8:23 AM,37.4,37.4,100,29.31,1.8,Calm,Calm,-,0.06,Rain,Rain,0,2014-01-06 13:23:00
8:27 AM,37.4,35.6,93,29.31,0.8,Calm,Calm,-,0.06,Rain,Light Rain,0,2014-01-06 13:27:00
8:44 AM,37.4,35.6,93,29.28,1.0,Calm,Calm,-,0.07,Rain,Light Rain,0,2014-01-06 13:44:00
8:52 AM,42.8,39.2,87,29.27,2.5,Variable,5.8,-,0.08,Rain,Light Rain,0,2014-01-06 13:52:00
8:54 AM,43.0,39.9,89,29.29,3.0,SSW,10.4,-,0.09,Rain,Rain,210,2014-01-06 13:54:00
9:11 AM,44.6,41.0,87,29.24,7.0,West,5.8,23.0,0.01,Rain,Light Rain,260,2014-01-06 14:11:00
9:52 AM,44.6,42.8,93,29.27,2.5,SSW,10.4,-,0.06,Rain,Rain,200,2014-01-06 14:52:00
9:54 AM,45.0,42.1,90,29.29,2.5,SSW,11.5,21.9,0.06,Rain,Rain,210,2014-01-06 14:54:00
9:59 AM,44.6,42.8,93,29.28,4.0,SSW,9.2,21.9,0.01,Rain,Light Rain,210,2014-01-06 14:59:00
10:54 AM,45.0,42.1,90,29.27,8.0,South,6.9,-,0.06,Rain,Light Rain,170,2014-01-06 15:54:00
11:54 AM,44.1,39.9,85,29.30,6.0,SSW,3.5,-,0.08,Rain,Light Rain,210,2014-01-06 16:54:00
12:54 PM,43.0,37.9,82,29.29,10.0,SW,5.8,-,0.01,,Mostly Cloudy,220,2014-01-06 17:54:00
1:33 PM,37.4,28.4,70,29.31,10.0,Variable,6.9,23.0,0.02,,Overcast,0,2014-01-06 18:33:00
1:54 PM,36.0,28.9,76,29.34,10.0,SW,10.4,18.4,0.02,,Mostly Cloudy,230,2014-01-06 18:54:00
2:54 PM,35.1,23.0,61,29.37,10.0,WSW,10.4,20.7,N/A,,Scattered Clouds,250,2014-01-06 19:54:00
3:54 PM,33.1,19.0,56,29.42,10.0,Variable,5.8,18.4,N/A,,Partly Cloudy,0,2014-01-06 20:54:00
4:54 PM,30.9,18.0,59,29.42,10.0,Variable,4.6,-,N/A,,Overcast,0,2014-01-06 21:54:00
5:54 PM,30.0,15.1,54,29.44,10.0,NW,6.9,-,N/A,,Overcast,320,2014-01-06 22:54:00
6:54 PM,28.0,12.0,51,29.46,10.0,Variable,6.9,-,N/A,,Overcast,0,2014-01-06 23:54:00
7:54 PM,26.1,14.0,60,29.47,10.0,NNW,8.1,-,0.00,,Overcast,330,2014-01-07 00:54:00
8:54 PM,25.0,10.9,55,29.47,10.0,NW,3.5,-,0.00,,Overcast,320,2014-01-07 01:54:00
9:54 PM,24.1,10.0,55,29.46,10.0,West,11.5,-,N/A,,Overcast,280,2014-01-07 02:54:00
10:16 PM,23.0,12.2,63,29.43,2.5,WNW,6.9,18.4,0.00,Snow,Light Snow,300,2014-01-07 03:16:00
10:38 PM,23.0,14.0,68,29.44,4.0,Variable,4.6,-,0.00,Snow,Light Snow,0,2014-01-07 03:38:00
10:54 PM,23.0,10.0,58,29.46,9.0,Variable,3.5,-,0.00,Snow,Light Snow,0,2014-01-07 03:54:00
11:36 PM,21.2,10.4,63,29.44,2.0,Calm,Calm,-,0.00,Snow,Light Snow,0,2014-01-07 04:36:00
11:42 PM,21.2,10.4,63,29.45,4.0,Variable,4.6,-,0.00,Snow,Light Snow,0,2014-01-07 04:42:00
11:54 PM,19.9,10.9,68,29.49,2.0,Variable,4.6,-,0.00,Snow,Light Snow,0,2014-01-07 04:54:00